Location: Caltech
(34.1382°N, 118.1253°W)
Time: 22:57:40
(UTC-07:00)

PCSat - Visible Passes

Search period start: 22 July 2014 00:00
Search period end: 01 August 2014 00:00
Orbit: 786 x 796 km, 67.1° (Epoch: 22 July)

Date Brightness Start Highest point End Pass type
(mag) Time Alt. Az. Time Alt. Az. Time Alt. Az.
22 Jul 11.2 01:53:03 28° ENE 01:53:03 28° ENE 01:55:57 10° NE visible
22 Jul 11.0 03:33:47 24° WNW 03:34:26 25° NW 03:38:51 10° N visible
23 Jul 11.7 01:23:18 18° ENE 01:23:18 18° ENE 01:25:03 10° NE visible
23 Jul 10.6 03:04:02 33° NW 03:04:02 33° NW 03:08:40 10° N visible
24 Jul 12.1 00:53:32 11° ENE 00:53:32 11° ENE 00:53:53 10° ENE visible
24 Jul 10.5 02:34:16 40° NNW 02:34:16 40° NNW 02:38:21 10° NNE visible
25 Jul 10.7 02:04:27 39° N 02:04:27 39° N 02:07:57 10° NNE visible
26 Jul 11.1 01:34:37 32° NNE 01:34:37 32° NNE 01:37:27 10° NNE visible
26 Jul 11.8 03:15:20 12° WNW 03:16:08 12° NW 03:18:20 10° NNW visible
27 Jul 11.5 01:04:44 24° NE 01:04:44 24° NE 01:06:51 10° NNE visible
27 Jul 11.6 02:45:27 17° NW 02:45:27 17° NW 02:48:47 10° N visible
28 Jul 11.8 00:34:49 17° NE 00:34:49 17° NE 00:36:08 10° NE visible
28 Jul 11.5 02:15:32 22° NW 02:15:32 22° NW 02:18:50 10° N visible
29 Jul 12.1 00:04:52 12° NE 00:04:52 12° NE 00:05:17 10° NE visible
29 Jul 11.4 01:45:35 26° NNW 01:45:35 26° NNW 01:48:41 10° N visible
30 Jul 11.4 01:15:36 28° N 01:15:36 28° N 01:18:24 10° NNE visible
31 Jul 11.4 00:45:33 27° N 00:45:33 27° N 00:48:01 10° NNE visible
